This demonstration page uses our WeatherBlox Daily Observations layout. Learn more.

39.92423, -83.80882

Hourly Observations for September 26, 2016

Temp ( °F °C ) Dew Point ( °F °C ) Humidity (%) Winds ( mph kmh ) Pressure ( in mb ) Visibility ( mi km ) Precip ( " mm )
12:56 am 00:56 Clear 65 18.3 58 14.4 78 78 SSE 5 7 30.01 1016 10 16.0934 0 0
1:56 am 01:56 Clear 66 18.9 59 15 78 78 S 8 13 30 1016 10 16.0934 0 0
2:56 am 02:56 Clear 68 20 61 16.1 78 78 SSE 8 13 29.97 1015 10 16.0934 0 0
3:56 am 03:56 Clear 68 20 62 16.7 81 81 S 6 9 29.95 1014 10 16.0934 0 0
4:56 am 04:56 Clear 68 20 62 16.7 81 81 S 7 11 29.93 1013 10 16.0934 0 0
5:56 am 05:56 Clear 68 20 63 17.2 84 84 SSW 6 9 29.92 1013 10 16.0934 0 0
6:56 am 06:56 Clear 68 20 64 17.8 87 87 W 8 13 29.92 1013 10 16.0934 0 0
7:56 am 07:56 Cloudy 67 19.4 64 17.8 91 91 WSW 7 11 29.95 1014 9 14.48406 0 0
8:09 am 08:09 Cloudy 68 20 64 18 88 88 W 9 15 29.94 1014 10 16.0934 0 0
8:23 am 08:23 Cloudy 68 20 63 17 83 83 WNW 26 43 29.97 1015 9 14.48406 0 0
8:56 am 08:56 Cloudy 64 17.8 60 15.6 87 87 NW 18 30 29.99 1016 10 16.0934 0 0
9:36 am 09:36 Cloudy 64 18 57 14 78 78 WNW 14 22 30 1016 10 16.0934 0 0
9:56 am 09:56 Cloudy with Light Rain 60 15.6 58 14.4 93 93 NW 7 11 30.01 1016 7 11.26538 0.06 1.524
10:56 am 10:56 Cloudy with Light Rain 61 16.1 59 15 93 93 WSW 5 7 30.02 1017 10 16.0934 0.02 0.508
11:42 am 11:42 Cloudy with Light Rain 61 16 59 15 94 94 WSW 8 13 30.03 1017 10 16.0934 0.02 0.508
11:56 am 11:56 Cloudy with Light Rain 61 16.1 59 15 93 93 WSW 9 15 30.04 1017 10 16.0934 0.02 0.508
12:04 pm 12:04 Cloudy with Light Rain 61 16 59 15 94 94 W 8 13 30.03 1017 10 16.0934 0 0.0254
12:29 pm 12:29 Cloudy with Light Rain 61 16 59 15 94 94 W 12 19 30.03 1017 10 16.0934 0 0.0254
12:56 pm 12:56 Cloudy 61 16.1 59 15 93 93 W 13 20 30.03 1017 10 16.0934 0 0.0254
1:34 pm 13:34 Mostly Cloudy 61 16 57 14 88 88 W 12 19 30.03 1017 10 16.0934 0 0
1:49 pm 13:49 Partly Cloudy 63 17 57 14 83 83 WNW 14 22 30.03 1017 10 16.0934 0 0
2:56 pm 14:56 Mostly Cloudy 65 18.3 55 12.8 70 70 W 13 20 30 1016 10 16.0934 0 0
3:22 pm 15:22 Mostly Sunny 66 19 52 11 60 60 NW 13 20 29.97 1015 10 16.0934 0 0
3:56 pm 15:56 Sunny 67 19.4 50 10 55 55 WNW 12 19 29.99 1016 10 16.0934 0 0
4:56 pm 16:56 Sunny 66 18.9 49 9.4 54 54 W 15 24 29.99 1016 10 16.0934 0 0
5:56 pm 17:56 Sunny 66 18.9 47 8.3 50 50 W 12 19 29.99 1016 10 16.0934 0 0
6:56 pm 18:56 Sunny 65 18.3 48 8.9 54 54 W 10 17 30 1016 10 16.0934 0 0
7:56 pm 19:56 Clear 56 13.3 48 8.9 75 75 SW 7 11 30.01 1016 10 16.0934 0 0
8:56 pm 20:56 Clear 55 12.8 48 8.9 77 77 SW 6 9 30.03 1017 10 16.0934 0 0
9:56 pm 21:56 Clear 54 12.2 49 9.4 83 83 SW 7 11 30.04 1017 10 16.0934 0 0
10:56 pm 22:56 Clear 53 11.7 49 9.4 86 86 SW 7 11 30.04 1017 10 16.0934 0 0
11:56 pm 23:56 Clear 53 11.7 49 9.4 86 86 SW 8 13 30.03 1017 10 16.0934 0 0

Powered by AerisWeather